Regional Weather Roundup
Issued by NWS Albany, NY

Home | Current Version | Previous Version | Text Only | Print | Product List | Glossary On
Versions: 1 2 3 4 5 6 7 8 9 10 11 12 13 14 15 16 17 18 19 20 21 22 23 24 25 26 27 28 29 30 31 32 33 34 35 36 37 38 39 40 41 42 43 44 45 46 47 48 49 50
337
ASUS41 KALY 271710
RWRALY

NEW YORK STATE HOURLY WEATHER ROUNDUP
NATIONAL WEATHER SERVICE ALBANY NY
1200 PM EST MON FEB 27 2017

NOTE: "FAIR" INDICATES FEW OR NO CLOUDS BELOW 12,000 FEET WITH NO
SIGNIFICANT WEATHER AND/OR NO OBSTRUCTIONS TO VISIBILITY.

NYZ032-033-038>043-046>054-057>066-NYZ062>081-082-084-271800-
EAST


CITY           SKY/WX    TMP DP  RH WIND       PRES   REMARKS
ALBANY         MOSUNNY   48  21  34 S10       30.29S
GLENS FALLS    SUNNY     46  23  40 S12       30.24F
POUGHKEEPSIE   SUNNY     48  18  30 SW14G21   30.35F
NEWBURGH       SUNNY     48  23  37 W17G29    30.37S
MONTGOMERY     SUNNY     50  24  36 SW15G22   30.34F
WHITE PLAINS   MOSUNNY   49  20  31 SW12      30.38S
ISLIP          PTSUNNY   47  27  45 SW13      30.42F
NEW YORK CITY  CLOUDY    51  22  31 SW10      30.41S
CENTRAL PARK   SUNNY     49  23  36 VRB6      30.43F
$$

NYZ005>009-017-018-044>046-055-056-271800-
CENTRAL


CITY           SKY/WX    TMP DP  RH WIND       PRES   REMARKS
FULTON         MOSUNNY   46  27  47 SW10G21   30.24S
SYRACUSE       MOSUNNY   49  23  36 SW20      30.25R
ROME           SUNNY     47  26  44 W13G23    30.26S
ELMIRA         MOSUNNY   48  16  27 W14       30.28S
BINGHAMTON     CLOUDY    42  17  36 SW13G21   30.27S
MONTICELLO     MOSUNNY  N/A N/A N/A W10G18    30.32F
$$

NYZ026>034-041>043-087-271800-
NORTH


CITY           SKY/WX    TMP DP  RH WIND       PRES   REMARKS
WATERTOWN      MOSUNNY   45  29  53 SW17G35   30.23R
FORT DRUM      NOT AVBL
OGDENSBURG     FAIR      44  30  58 SW14G23   30.17R
MASSENA        CLOUDY    43  28  55 SW14G22   30.17R
SARANAC LAKE   CLOUDY    36  24  62 W12G26    30.12S WCI  28
PLATTSBURGH    PTSUNNY   46  22  38 SW8G21    30.15S
$$

NYZ001>004-010>016-019>021-085-271800-
WEST


CITY           SKY/WX    TMP DP  RH WIND       PRES   REMARKS
NIAGARA FALLS  SUNNY     48  30  49 SW15      30.23S
BUFFALO        MOSUNNY   44  23  43 W22G35    30.24S
DUNKIRK        SUNNY     46  22  38 W13G25    30.27S
JAMESTOWN      SUNNY     43  21  42 SW10      30.24S
WELLSVILLE     SUNNY     45  18  34 W14G22    30.24S
ROCHESTER      MOSUNNY   49  25  39 W20G31    30.24R
PENN YAN         N/A     46  20  35 S10G20    30.26R
$$

             KEY
       WCI = WIND CHILL INDEX
       VSB = VISIBILITY
       HX  = HEAT INDEX
$$




USA.gov is the U.S. government's official web portal to all federal, state and local government web resources and services.